{"data":{"norad_id":52855,"intl_designator":"2022-062AB","name":"STARLINK-4209","alt_names":[],"object_type":"PAYLOAD","status":"ACTIVE","operator":null,"country":"US","launch_date":"2022-06-17","launch_site_code":"AFETR","launch_vehicle":null,"mission":null,"orbit_class":"UNKNOWN","rcs_meters":null,"size_class":null,"mass_kg":null,"dimensions":null,"purposes":["comms"],"wikipedia_slug":null,"has_3d_model":false,"image_url":null,"decayed_at":null,"tle_current":{"epoch":"2026-09-20T03:43:45.770304Z","epoch_age_seconds":98647,"freshness":"FRESH","line1":"1 52855U 22062AB  26263.15539086  .00000733  00000+0  35378-4 0  9995","line2":"2 52855  53.1592 218.4126 0001241  92.6346 267.4797 15.31705144235456","mean_motion":15.31705144,"eccentricity":0.0001241,"inclination_deg":53.1592,"raan_deg":218.4126,"arg_perigee_deg":92.6346,"mean_anomaly_deg":267.4797,"bstar":3.5378e-5,"rev_number":23545,"period_min":94.01287223202,"perigee_km":469.87471754007,"apogee_km":471.5746050044,"semimajor_km":6848.8616612722,"source":"CELESTRAK","updated_at":"2026-09-20T09:00:40.115727Z"}}}